Weather in Chernaya

Ukraine / Khmelnitsky District     49°52′28″N   27°26′28″E
В апреле 2022 года жителям России запретили посещать сайт meteo.paraplan.net по решению Генеральной прокуратуры. Аудитория сайта уменьшилась в 10 раз. Владельцы сайта не видят смысла в поддержке погодного сервера в таких условиях. Сайт будет закрыт в октябре.
temp.,
°C
wind,
m/s
gust,
m/s
humid.,
%
clouds,
%
prec.,
mm/h
press.,
hPa
HPBL,
m
3 october, mon
mon300:00+9wnw81688100 0.0 1006763
03:00+9wnw81583100 0.0 1006958
06:00+9w81585100 0.1 1005912
09:00+9w81482100 0.1 1005953
12:00+9w91480100 0.0 10061184
15:00+10w91378100 0.3 10051495
18:00+9w91486100 0.5 10051102
21:00+9wnw101489100 2.1 10061125
4 october, tue
tue400:00+7w81488100 0.1 1008818
03:00+7w81387100 0.1 1009834
06:00+8wnw81385100 0.0 1010963
09:00+8w71485100 0.0 1012786
12:00+10wnw91373100 0.0 10131216
15:00+11w81274100 0.6 10141265
18:00+9wnw71381100 0.4 1017853
21:00+9w61381100 0.5 1018650
5 october, wed
wed500:00+8w6128782 0.1 1020450
03:00+8w6139113 0.1 1021536
06:00+7w512945 0.0 1023381
09:00+8w5118872 0.0 1024469
12:00+12wnw5871100 0.0 1024770
15:00+14w5761100 0.0 10241073
18:00+12wsw3571100 0.0 1024118
21:00+10sw3776100 0.0 1025131
6 october, thu
thu600:00+11wsw41075100 0.0 1025244
03:00+10wsw3875100 0.0 1025195
06:00+9wsw3676100 0.0 1025105
09:00+11wsw387598 0.0 1025218
12:00+16w575777 0.0 1025617
15:00+18w685382 0.0 10241076
18:00+15wnw597074 0.0 1025321
21:00+12w4109025 0.0 1027235
7 october, fri
fri700:00+11wnw310955 0.0 1028222
03:00+12nnw4991100 0.0 1029394
06:00+9nnw35969 0.0 1030101
09:00+10nnw24874 0.0 1030159
12:00+15nnw236441 0.0 1030839
15:00+16nnw225392 0.0 10281082
18:00+14nne11645 0.0 102811
21:00+11se227410 0.0 102811